Bangkok (Don Mueang), Thailand

2:06 PM ICT on February 07, 2016 (GMT +0700)
Bangkok International

Weather History for VTBD - March, 2014

Change the Weather History Date:

Friday, March 7, 2014

  Actual Average Record
Temperature  
Mean Temperature 84 °F -  
Max Temperature 91 °F 93 °F 98 °F (1997)
Min Temperature 77 °F 76 °F 71 °F (2005)
Cooling Degree Days 19    
Growing Degree Days 34 (Base 50)    
Moisture  
Dew Point 73 °F    
Average Humidity 70    
Maximum Humidity 89    
Minimum Humidity 46    
Precipitation  
Precipitation 0.00 in 0.05 in - ()
Sea Level Pressure  
Sea Level Pressure 29.89 in    
Wind  
Wind Speed 8 mph ()    
Max Wind Speed 14 mph    
Max Gust Speed -    
Visibility 6.2 miles    
Events      
Averages and records for this station are not official NWS values.
T = Trace of Precipitation, MM = Missing Value Source: Averaged Metar Reports

Daily Weather History Graph

Daily Weather History Graph

Search for Another Location

Airport or City:

Trip Planner

Search our weather history database for the weather conditions in past years. The results will help you decide how hot, cold, wet, or windy it might be!

Date:

Astronomy

Mar. 07, 2014 Rise Set
Actual Time 6:30 AM ICT 6:26 PM ICT
Civil Twilight 6:09 AM ICT 6:48 PM ICT
Nautical Twilight 5:44 AM ICT 7:13 PM ICT
Astronomical Twilight 5:19 AM ICT 7:37 PM ICT
Moon 10:56 AM ICT 11:59 PM ICT
Length of Visible Light 12h 38m
Length of Day
11h 56m
Waxing Crescent, 37% of the Moon is Illuminated
Mar 7
Waxing Crescent
Mar 8
First Quarter
Mar 17
Full
Mar 24
Last Quarter
Mar 31
New

Hourly Weather History & Observations

Time (ICT) Temp. Heat Index Dew Point Humidity Pressure Visibility Wind Dir Wind Speed Gust Speed Precip Events Conditions
12:00 AM 80.6 °F 85.4 °F 73.4 °F 79% 29.89 in - South 10.4 mph - N/A   Clear
12:30 AM 80.6 °F 85.4 °F 73.4 °F 79% 29.89 in - South 11.5 mph - N/A   Clear
1:00 AM 81 °F - 74 °F 73% 29.88 in 6 mi SSW 10.4 mph - -   Clear
1:00 AM 80.6 °F 85.4 °F 73.4 °F 79% 29.86 in - SSW 10.4 mph - N/A   Clear
1:30 AM 80.6 °F 85.4 °F 73.4 °F 79% 29.86 in - South 9.2 mph - N/A   Clear
2:00 AM 80.6 °F 86.2 °F 75.2 °F 84% 29.86 in - South 5.8 mph - N/A   Clear
2:30 AM 80.6 °F 86.2 °F 75.2 °F 84% 29.86 in - South 6.9 mph - N/A   Clear
3:00 AM 80.6 °F 86.2 °F 75.2 °F 84% 29.86 in - South 6.9 mph - N/A   Clear
4:00 AM 79 °F - 74 °F 80% 29.87 in 6 mi SSE 4.6 mph - -   Clear
4:00 AM 78.8 °F - 73.4 °F 83% 29.86 in - SSE 4.6 mph - N/A   Clear
4:30 AM 78.8 °F - 73.4 °F 83% 29.86 in - SE 4.6 mph - N/A   Clear
5:00 AM 78.8 °F - 73.4 °F 83% 29.86 in 6.2 mi SE 3.5 mph - N/A   Scattered Clouds
5:30 AM 78.8 °F - 75.2 °F 89% 29.89 in 6.2 mi ESE 3.5 mph - N/A   Scattered Clouds
6:00 AM 78.8 °F - 73.4 °F 83% 29.89 in 6.2 mi SE 3.5 mph - N/A   Scattered Clouds
6:30 AM 77.0 °F - 73.4 °F 89% 29.89 in 6.2 mi ESE 4.6 mph - N/A   Scattered Clouds
7:00 AM 77 °F - 74 °F 87% 29.92 in 6 mi ESE 3.5 mph - -   Scattered Clouds
7:00 AM 77.0 °F - 73.4 °F 89% 29.92 in 6.2 mi ESE 3.5 mph - N/A   Mostly Cloudy
7:30 AM 78.8 °F - 73.4 °F 83% 29.92 in 6.2 mi ESE 4.6 mph - N/A   Mostly Cloudy
8:00 AM 80.6 °F 86.2 °F 75.2 °F 84% 29.95 in 6.2 mi South 5.8 mph - N/A   Mostly Cloudy
8:30 AM 84.2 °F 92.3 °F 75.2 °F 74% 29.95 in 6.2 mi South 6.9 mph - N/A   Mostly Cloudy
9:00 AM 84.2 °F 90.9 °F 73.4 °F 70% 29.95 in 6.2 mi South 12.7 mph - N/A   Scattered Clouds
9:30 AM 86.0 °F 93.4 °F 73.4 °F 66% 29.95 in 6.2 mi South 11.5 mph - N/A   Mostly Cloudy
10:00 AM 88 °F - 73 °F 54% 29.96 in 6 mi South 10.4 mph - -   Scattered Clouds
10:00 AM 87.8 °F 95.6 °F 73.4 °F 62% 29.95 in 6.2 mi South 10.4 mph - N/A   Mostly Cloudy
10:30 AM 87.8 °F 95.6 °F 73.4 °F 62% 29.98 in 6.2 mi South 11.5 mph - N/A   Mostly Cloudy
11:00 AM 87.8 °F 95.6 °F 73.4 °F 62% 29.95 in 6.2 mi SSE 10.4 mph - N/A   Mostly Cloudy
11:30 AM 91.4 °F 100.1 °F 73.4 °F 55% 29.95 in 6.2 mi SW 10.4 mph - N/A   Mostly Cloudy
12:00 PM 89.6 °F 98.2 °F 73.4 °F 59% 29.95 in 6.2 mi South 11.5 mph - N/A   Mostly Cloudy
12:30 PM 91.4 °F 100.1 °F 73.4 °F 55% 29.92 in 6.2 mi South 11.5 mph - N/A   Mostly Cloudy
1:00 PM 90 °F - 73 °F 49% 29.91 in 6 mi SSW 11.5 mph - -   Partly Cloudy
1:00 PM 89.6 °F 98.2 °F 73.4 °F 59% 29.92 in 6.2 mi SSW 11.5 mph - N/A   Mostly Cloudy
1:30 PM 89.6 °F 98.2 °F 73.4 °F 59% 29.89 in 6.2 mi South 12.7 mph - N/A   Mostly Cloudy
2:00 PM 91.4 °F 96.8 °F 69.8 °F 49% 29.89 in 6.2 mi South 10.4 mph - N/A   Mostly Cloudy
2:30 PM 91.4 °F 98.4 °F 71.6 °F 52% 29.86 in 6.2 mi SSW 9.2 mph - N/A   Mostly Cloudy
3:00 PM 91.4 °F 98.4 °F 71.6 °F 52% 29.86 in 6.2 mi SSW 10.4 mph - N/A   Mostly Cloudy
3:30 PM 91.4 °F 98.4 °F 71.6 °F 52% 29.83 in 6.2 mi SSW 10.4 mph - N/A   Mostly Cloudy
4:00 PM 91 °F - 72 °F 46% 29.84 in 6 mi SSW 11.5 mph - -   Scattered Clouds
4:00 PM 91.4 °F 100.1 °F 73.4 °F 55% 29.83 in 6.2 mi SSW 11.5 mph - N/A   Mostly Cloudy
4:30 PM 89.6 °F 98.2 °F 73.4 °F 59% 29.83 in 6.2 mi SSW 12.7 mph - N/A   Mostly Cloudy
5:00 PM 89.6 °F 98.2 °F 73.4 °F 59% 29.83 in - South 13.8 mph - N/A   Clear
5:30 PM 87.8 °F 93.8 °F 71.6 °F 58% 29.83 in - SSW 13.8 mph - N/A   Clear
6:00 PM 86.0 °F 91.8 °F 71.6 °F 62% 29.86 in - SSW 9.2 mph - N/A   Clear
6:30 PM 84.2 °F 89.6 °F 71.6 °F 66% 29.86 in - South 8.1 mph - N/A   Clear
7:00 PM 84 °F - 72 °F 60% 29.87 in 6 mi South 12.7 mph - -   Clear
7:00 PM 84.2 °F 89.6 °F 71.6 °F 66% 29.86 in - South 12.7 mph - N/A   Clear
7:30 PM 84.2 °F 90.9 °F 73.4 °F 70% 29.86 in - South 10.4 mph - N/A   Clear
8:00 PM 82.4 °F 88.2 °F 73.4 °F 74% 29.89 in - SSW 9.2 mph - N/A   Clear
8:30 PM 82.4 °F 88.2 °F 73.4 °F 74% 29.89 in - South 9.2 mph - N/A   Clear
9:00 PM 82.4 °F 88.2 °F 73.4 °F 74% 29.89 in - South 9.2 mph - N/A   Clear
9:30 PM 82.4 °F 88.2 °F 73.4 °F 74% 29.92 in - South 12.7 mph - N/A   Clear
10:00 PM 82 °F - 74 °F 72% 29.92 in 6 mi South 11.5 mph - -   Clear
10:00 PM 82.4 °F 89.5 °F 75.2 °F 79% 29.92 in - South 11.5 mph - N/A   Clear
10:30 PM 82.4 °F 89.5 °F 75.2 °F 79% 29.92 in - South 11.5 mph - N/A   Clear
11:00 PM 82.4 °F 89.5 °F 75.2 °F 79% 29.92 in - South 11.5 mph - N/A   Clear
11:30 PM 80.6 °F 86.2 °F 75.2 °F 84% 29.92 in 6.2 mi SSW 8.1 mph - N/A   Scattered Clouds